Radiation Dose at Monitoring Post of Fukushima Daini Nuclear Power Station
Date,Time,MP-1(microSv/h),MP-2(microSv/h),MP-3(microSv/h),MP-4(microSv/h),MP-5(microSv/h),MP-6(microSv/h),MP-7(microSv/h),Wind Direction,Wind Velocity(m/s),Rain
2015/06/25,00:00,0.516,0.302,0.533,0.483,0.467,0.237,0.209,northwest,0.6,No
2015/06/25,00:10,0.512,0.304,0.532,0.480,0.462,0.239,0.210,north,0.5,No
2015/06/25,00:20,0.520,0.301,0.535,0.486,0.470,0.238,0.208,north-northwest,1.1,No
2015/06/25,00:30,0.515,0.302,0.529,0.480,0.464,0.239,0.211,north-northwest,1.9,No
2015/06/25,00:40,0.516,0.303,0.537,0.484,0.465,0.238,0.210,north-northwest,2.1,No
2015/06/25,00:50,0.519,0.301,0.534,0.485,0.466,0.238,0.209,north-northwest,1.9,No
2015/06/25,01:00,0.514,0.304,0.533,0.480,0.463,0.239,0.211,north-northwest,1.7,No
2015/06/25,01:10,0.518,0.301,0.537,0.483,0.467,0.239,0.209,north,1.6,No
2015/06/25,01:20,0.518,0.303,0.531,0.482,0.466,0.239,0.210,north,2.0,No
2015/06/25,01:30,0.514,0.302,0.536,0.483,0.463,0.239,0.209,north-northeast,1.9,No
2015/06/25,01:40,0.520,0.302,0.535,0.485,0.467,0.238,0.210,north,2.0,No
2015/06/25,01:50,0.515,0.305,0.531,0.480,0.463,0.240,0.210,north-northeast,2.4,No
2015/06/25,02:00,0.518,0.302,0.536,0.486,0.467,0.238,0.210,north,2.4,No
2015/06/25,02:10,0.519,0.304,0.534,0.483,0.467,0.240,0.211,north,2.4,No
2015/06/25,02:20,0.513,0.305,0.532,0.484,0.464,0.239,0.209,north,2.3,No
2015/06/25,02:30,0.519,0.303,0.538,0.485,0.470,0.238,0.211,north,2.5,No
2015/06/25,02:40,0.517,0.305,0.532,0.480,0.465,0.240,0.211,north,2.8,No
2015/06/25,02:50,0.514,0.302,0.536,0.487,0.466,0.238,0.210,north,3.1,No
2015/06/25,03:00,0.519,0.304,0.536,0.484,0.469,0.241,0.211,north,2.8,No
2015/06/25,03:10,0.515,0.305,0.531,0.482,0.464,0.240,0.211,north,2.5,No
2015/06/25,03:20,0.519,0.302,0.539,0.487,0.468,0.239,0.213,north,2.2,No
2015/06/25,03:30,0.519,0.307,0.535,0.480,0.465,0.241,0.211,north,2.3,No
2015/06/25,03:40,0.514,0.303,0.534,0.485,0.465,0.239,0.211,north,2.5,No
2015/06/25,03:50,0.519,0.304,0.537,0.484,0.470,0.240,0.212,north,2.0,No
2015/06/25,04:00,0.516,0.305,0.534,0.481,0.466,0.241,0.211,north,2.2,No
2015/06/25,04:10,0.517,0.302,0.538,0.487,0.467,0.238,0.212,north,2.2,No
2015/06/25,04:20,0.521,0.305,0.535,0.482,0.467,0.241,0.211,north,2.5,No
2015/06/25,04:30,0.513,0.304,0.532,0.481,0.461,0.240,0.210,north,2.7,No
2015/06/25,04:40,0.519,0.303,0.539,0.485,0.469,0.241,0.212,north,2.2,No
2015/06/25,04:50,0.518,0.305,0.533,0.481,0.467,0.239,0.210,north,1.7,No
2015/06/25,05:00,0.514,0.303,0.536,0.487,0.464,0.238,0.211,north,1.9,No
2015/06/25,05:10,0.521,0.305,0.538,0.483,0.468,0.240,0.211,north-northwest,1.6,No
2015/06/25,05:20,0.518,0.303,0.532,0.482,0.463,0.238,0.211,north,1.4,No
2015/06/25,05:30,0.514,0.303,0.540,0.488,0.468,0.240,0.211,north,1.9,No
2015/06/25,05:40,0.521,0.306,0.536,0.482,0.468,0.240,0.210,north,1.3,No
2015/06/25,05:50,0.513,0.302,0.532,0.484,0.462,0.240,0.212,north,1.6,No
2015/06/25,06:00,0.519,0.304,0.540,0.486,0.469,0.241,0.210,north,1.3,No
2015/06/25,06:10,0.519,0.304,0.534,0.481,0.466,0.238,0.210,north-northeast,0.5,No
2015/06/25,06:20,0.513,0.302,0.532,0.486,0.463,0.240,0.212,north,0.9,No
2015/06/25,06:30,0.522,0.306,0.538,0.483,0.469,0.239,0.210,northeast,0.5,No
2015/06/25,06:40,0.520,0.304,0.532,0.477,0.465,0.238,0.212,-,CALM,No
2015/06/25,06:50,0.513,0.302,0.534,0.486,0.462,0.240,0.211,-,CALM,No
2015/06/25,07:00,0.520,0.305,0.539,0.484,0.470,0.240,0.210,north-northeast,0.7,No
2015/06/25,07:10,0.519,0.304,0.534,0.480,0.467,0.239,0.213,-,CALM,No
2015/06/25,07:20,0.512,0.303,0.531,0.488,0.462,0.240,0.211,northeast,0.5,No
2015/06/25,07:30,0.518,0.305,0.538,0.484,0.466,0.240,0.210,-,CALM,No
2015/06/25,07:40,0.519,0.303,0.532,0.479,0.468,0.239,0.211,east-northeast,0.5,No
2015/06/25,07:50,0.514,0.303,0.529,0.481,0.464,0.239,0.211,-,CALM,No
2015/06/25,08:00,0.511,0.301,0.531,0.486,0.462,0.240,0.210,south-southeast,0.7,No
2015/06/25,08:10,0.520,0.301,0.534,0.483,0.460,0.240,0.210,southeast,0.7,No
2015/06/25,08:20,0.518,0.300,0.536,0.480,0.464,0.239,0.209,south-southeast,1.0,No
2015/06/25,08:30,0.514,0.301,0.531,0.479,0.468,0.240,0.209,southeast,0.7,No
2015/06/25,08:40,0.512,0.300,0.530,0.479,0.466,0.238,0.208,southeast,1.7,No
2015/06/25,08:50,0.521,0.301,0.528,0.478,0.463,0.240,0.209,east-southeast,1.5,No
2015/06/25,09:00,0.521,0.301,0.528,0.478,0.461,0.241,0.208,southeast,1.6,No
2015/06/25,09:10,0.517,0.302,0.528,0.477,0.461,0.240,0.209,southeast,1.4,No
2015/06/25,09:20,0.515,0.301,0.530,0.478,0.462,0.239,0.208,south-southeast,2.5,No
2015/06/25,09:30,0.513,0.300,0.537,0.480,0.461,0.238,0.209,south-southeast,2.7,No
2015/06/25,09:40,0.512,0.302,0.539,0.481,0.460,0.238,0.208,south-southeast,3.2,No
2015/06/25,09:50,0.512,0.303,0.535,0.480,0.461,0.240,0.208,southeast,2.9,No
2015/06/25,10:00,0.512,0.302,0.532,0.481,0.462,0.238,0.209,south-southeast,3.4,No
2015/06/25,10:10,0.511,0.302,0.531,0.482,0.462,0.239,0.209,south-southeast,4.1,No
2015/06/25,10:20,0.511,0.302,0.538,0.482,0.462,0.239,0.209,south-southeast,2.8,No
2015/06/25,10:30,0.513,0.301,0.534,0.482,0.464,0.239,0.210,south-southeast,4.7,No
2015/06/25,10:40,0.513,0.303,0.537,0.481,0.463,0.239,0.209,south-southeast,4.1,No
2015/06/25,10:50,0.514,0.303,0.533,0.481,0.464,0.239,0.210,south,3.8,No
2015/06/25,11:00,0.514,0.303,0.532,0.480,0.465,0.238,0.209,south,3.3,No
2015/06/25,11:10,0.514,0.303,0.533,0.482,0.464,0.239,0.209,south,4.9,No
2015/06/25,11:20,0.514,0.303,0.533,0.481,0.464,0.239,0.209,south-southeast,5.0,No
2015/06/25,11:30,0.516,0.302,0.533,0.482,0.464,0.240,0.208,south,5.1,No
2015/06/25,11:40,0.515,0.302,0.531,0.481,0.466,0.240,0.209,south,5.6,No
2015/06/25,11:50,0.515,0.303,0.532,0.482,0.465,0.240,0.208,south,5.6,No
2015/06/25,12:00,0.516,0.302,0.532,0.482,0.465,0.240,0.209,south-southeast,5.3,No
2015/06/25,12:10,0.514,0.301,0.533,0.481,0.465,0.240,0.209,south,6.1,No
2015/06/25,12:20,0.514,0.302,0.532,0.484,0.465,0.239,0.209,south-southeast,6.4,No
2015/06/25,12:30,0.515,0.303,0.533,0.482,0.464,0.240,0.208,south-southeast,7.2,No
2015/06/25,12:40,0.514,0.302,0.533,0.481,0.465,0.240,0.208,south-southeast,6.7,No
2015/06/25,12:50,0.515,0.302,0.534,0.482,0.464,0.238,0.209,south,6.5,No
2015/06/25,13:00,0.516,0.301,0.534,0.481,0.463,0.240,0.209,south,8.3,No
2015/06/25,13:10,0.522,0.302,0.534,0.483,0.463,0.240,0.209,south,7.3,No
2015/06/25,13:20,0.520,0.303,0.535,0.482,0.462,0.241,0.207,south,7.2,No
2015/06/25,13:30,0.518,0.303,0.534,0.484,0.462,0.238,0.209,south,7.9,No
2015/06/25,13:40,0.517,0.304,0.535,0.483,0.464,0.239,0.211,south-southeast,7.7,No
2015/06/25,13:50,0.514,0.303,0.534,0.484,0.464,0.240,0.211,south-southeast,6.9,No
2015/06/25,14:00,0.515,0.303,0.536,0.483,0.464,0.240,0.210,south,7.3,No
2015/06/25,14:10,0.515,0.303,0.535,0.484,0.465,0.239,0.209,south,8.8,No
2015/06/25,14:20,0.515,0.304,0.535,0.485,0.464,0.240,0.208,south,8.0,No
2015/06/25,14:30,0.512,0.303,0.534,0.485,0.465,0.240,0.209,south,9.5,No
2015/06/25,14:40,0.514,0.302,0.537,0.484,0.464,0.240,0.209,south,8.2,No
2015/06/25,14:50,0.515,0.302,0.533,0.486,0.465,0.241,0.208,south,8.6,No
2015/06/25,15:00,0.522,0.302,0.536,0.491,0.465,0.240,0.208,south,8.2,No
2015/06/25,15:10,0.521,0.303,0.535,0.491,0.465,0.240,0.210,south,7.9,No
2015/06/25,15:20,0.519,0.304,0.534,0.488,0.464,0.241,0.212,south,9.2,No
2015/06/25,15:30,0.516,0.304,0.536,0.483,0.465,0.240,0.210,south,9.1,No
2015/06/25,15:40,0.519,0.308,0.536,0.487,0.464,0.240,0.209,south,8.2,No
2015/06/25,15:50,0.524,0.308,0.534,0.489,0.465,0.239,0.209,south,8.8,No
2015/06/25,16:00,0.521,0.305,0.540,0.486,0.465,0.240,0.211,south,8.8,No
2015/06/25,16:10,0.515,0.302,0.542,0.483,0.463,0.242,0.211,south,9.6,No
2015/06/25,16:20,0.513,0.306,0.539,0.487,0.462,0.242,0.210,south,8.7,No
2015/06/25,16:30,0.523,0.308,0.535,0.491,0.471,0.240,0.211,south,8.8,No
2015/06/25,16:40,0.523,0.305,0.542,0.485,0.472,0.238,0.211,south,8.7,No
2015/06/25,16:50,0.517,0.304,0.543,0.484,0.467,0.239,0.210,south,9.0,No
2015/06/25,17:00,0.515,0.309,0.536,0.491,0.465,0.241,0.211,south,9.2,No
2015/06/25,17:10,0.523,0.306,0.538,0.489,0.467,0.241,0.211,south,8.6,No
2015/06/25,17:20,0.521,0.302,0.545,0.483,0.473,0.240,0.210,south,10.4,No
2015/06/25,17:30,0.514,0.307,0.540,0.490,0.469,0.240,0.213,south,9.3,No
2015/06/25,17:40,0.522,0.306,0.537,0.487,0.467,0.239,0.211,south,8.4,No
2015/06/25,17:50,0.523,0.305,0.543,0.485,0.473,0.239,0.211,south,8.6,No
2015/06/25,18:00,0.516,0.306,0.539,0.492,0.467,0.240,0.211,south,9.7,No
2015/06/25,18:10,0.523,0.305,0.537,0.487,0.467,0.240,0.210,south,8.7,No
2015/06/25,18:20,0.522,0.304,0.544,0.484,0.469,0.239,0.211,south,8.0,No
2015/06/25,18:30,0.518,0.307,0.538,0.490,0.466,0.240,0.211,south,8.7,No
2015/06/25,18:40,0.522,0.304,0.535,0.486,0.469,0.238,0.210,south,7.5,No
2015/06/25,18:50,0.522,0.307,0.544,0.484,0.471,0.239,0.211,south,7.5,No
2015/06/25,19:00,0.516,0.308,0.537,0.491,0.465,0.239,0.211,south,8.5,No
2015/06/25,19:10,0.521,0.304,0.537,0.486,0.471,0.239,0.211,south,7.4,No
2015/06/25,19:20,0.522,0.307,0.541,0.485,0.467,0.241,0.211,south,6.8,No
2015/06/25,19:30,0.515,0.305,0.536,0.489,0.465,0.240,0.210,south-southwest,7.2,No
2015/06/25,19:40,0.521,0.305,0.539,0.484,0.471,0.239,0.211,south-southwest,6.7,No
2015/06/25,19:50,0.519,0.307,0.544,0.488,0.465,0.240,0.210,south-southwest,6.4,No
2015/06/25,20:00,0.516,0.304,0.536,0.489,0.467,0.240,0.211,south-southwest,6.9,No
2015/06/25,20:10,0.523,0.307,0.541,0.483,0.470,0.242,0.213,south-southwest,6.8,No
2015/06/25,20:20,0.517,0.305,0.541,0.488,0.464,0.239,0.210,south-southwest,6.1,No
2015/06/25,20:30,0.519,0.306,0.535,0.486,0.470,0.240,0.211,south-southwest,6.4,No
2015/06/25,20:40,0.521,0.307,0.541,0.484,0.469,0.240,0.210,south,6.8,No
2015/06/25,20:50,0.516,0.304,0.539,0.490,0.464,0.240,0.211,south-southwest,7.8,No
2015/06/25,21:00,0.519,0.308,0.536,0.486,0.469,0.240,0.211,south-southwest,7.6,No
2015/06/25,21:10,0.519,0.304,0.541,0.488,0.465,0.239,0.210,south-southwest,8.3,No
2015/06/25,21:20,0.516,0.307,0.537,0.489,0.469,0.240,0.212,south-southwest,7.5,No
2015/06/25,21:30,0.520,0.306,0.540,0.484,0.467,0.241,0.210,south-southwest,8.0,No
2015/06/25,21:40,0.516,0.307,0.540,0.491,0.465,0.239,0.212,south-southwest,8.1,No
2015/06/25,21:50,0.522,0.306,0.535,0.488,0.470,0.241,0.211,south-southwest,7.2,No
2015/06/25,22:00,0.520,0.307,0.542,0.485,0.465,0.240,0.210,south-southwest,6.9,No
2015/06/25,22:10,0.518,0.308,0.540,0.489,0.468,0.240,0.212,south-southwest,6.1,No
2015/06/25,22:20,0.521,0.305,0.538,0.485,0.467,0.241,0.211,south,5.8,No
2015/06/25,22:30,0.515,0.308,0.542,0.489,0.465,0.239,0.212,south,5.8,No
2015/06/25,22:40,0.520,0.305,0.537,0.488,0.470,0.241,0.210,south,5.9,No
2015/06/25,22:50,0.521,0.308,0.541,0.486,0.464,0.238,0.211,south,4.9,No
2015/06/25,23:00,0.517,0.306,0.541,0.491,0.470,0.242,0.211,south,5.1,No
2015/06/25,23:10,0.523,0.308,0.537,0.485,0.467,0.241,0.212,south,5.6,No
2015/06/25,23:20,0.516,0.306,0.544,0.490,0.467,0.240,0.212,south,6.6,No
2015/06/25,23:30,0.522,0.306,0.537,0.488,0.469,0.241,0.211,south-southwest,6.7,No
2015/06/25,23:40,0.520,0.306,0.543,0.488,0.466,0.239,0.211,south,5.6,No
2015/06/25,23:50,0.520,0.306,0.539,0.489,0.470,0.240,0.212,south,6.2,No
